Hourly Data Report for September 29, 2017

All times are specified in Local Standard Time (LST). Add 1 hour to adjust for Daylight Saving Time where and when it is observed.

COMOX A
BRITISH COLUMBIA

49°43'00.000" N
124°54'00.000" W
25.60 m
1021830
71893
YQQ

Download Data

Hourly Data (September 2017)
Hourly Data Report for September 29, 2017
Temp Definition
°C
Dew Point Temp Definition
°C
Rel Hum Definition
%
Wind Dir Definition
10's deg

Wind Spd Definition
km/h
Visibility Definition
km
Stn Press Definition
kPa
Hmdx Definition


Wind Chill Definition


Weather Definition


TIME
00:00 18.6 10.9 61 6 6 32.2 100.59     Cloudy
01:00 17.3 13.0 76   0 32.2 100.60     Cloudy
02:00 16.5 13.7 84 28 11 32.2 100.62     Cloudy
03:00 17.4 13.0 75   0 32.2 100.64     Rain Showers
04:00 15.2 13.8 91 32 6 32.2 100.64     Mostly Cloudy
05:00 15.2 13.8 91 30 7 32.2 100.63     Cloudy
06:00 15.4 13.8 90   0 32.2 100.63     Cloudy
07:00 15.0 9.8 71 12 4 24.1 100.67     Rain Showers
08:00 15.4 13.6 89 12 22 32.2 100.72     Cloudy
09:00 14.8 14.2 96 15 15 16.1 100.79     Rain Showers
10:00 14.6 14.1 97 16 26 9.7 100.81     Rain Showers,Fog
11:00 14.6 14.3 98 18 19 9.7 100.84     Rain Showers,Fog
12:00 15.3 14.9 97 15 28 11.3 100.85     Rain Showers
13:00 15.3 14.5 95 15 26 12.9 100.87     Mostly Cloudy
14:00 15.0 14.4 96 15 24 11.3 100.84     Rain Showers
15:00 12.9 12.2 96 33 24 12.9 100.93     Rain Showers
16:00 12.5 11.5 94 34 20 16.1 100.95     Mostly Cloudy
17:00 12.4 10.8 90 33 13 32.2 101.00     Mostly Cloudy
18:00 11.9 10.8 93   0 32.2 101.09     Mostly Cloudy
19:00 10.5 10.1 97 22 4 32.2 101.17     Mainly Clear
20:00 10.9 10.2 95 23 6 32.2 101.22     Mainly Clear
21:00 9.8 9.5 98 24 6 32.2 101.24     Mostly Cloudy
22:00 11.0 10.5 97   0 32.2 101.26     Mostly Cloudy
23:00 11.7 10.6 93   0 32.2 101.28     Rain Showers

Notes on Data Quality.

Legend

  • E = Estimated
  • M = Missing
  • NA = Not Available
  • ‡ = Partner data that is not subject to review by the National Climate Archives
Date modified: